contact:dominique.lefevre@mio.osupytheas.fr, maurice.libes@osupytheas.fr, didier.mallarino@osupytheas.fr
Project:EMSO http://www.emso-fr.org/EMSO-France
Depth: 2436.0 m
Title:EMSO Ligure Ouest : Data MII capteur CSTAR
DateTime,Latitude,Longitude,Instrument_Serial,Reference_Counts,Signal_Counts,Corrected_Signal_raw_counts,Calculated_Beam_c_inverse_meters,Internal_thermistor_counts
DateTime,Latitude,Longitude,Instrument_Serial,Reference_Counts,Signal_Counts,Corrected_Signal_raw_counts,Calculated_Beam_c_inverse_meters,Internal_thermistor_counts
2019-11-22T00:01:52,42.805,6.029,CST-1368DR,7315,10252,15308,0.080,551
2019-11-22T00:04:54,42.805,6.029,CST-1368DR,7315,10253,15310,0.079,551
2019-11-22T00:07:56,42.805,6.029,CST-1368DR,7315,10252,15308,0.080,551
2019-11-22T00:10:57,42.805,6.029,CST-1368DR,7315,10253,15310,0.079,551
2019-11-22T00:13:59,42.805,6.029,CST-1368DR,7315,10252,15309,0.079,550
2019-11-22T00:17:01,42.805,6.029,CST-1368DR,7315,10252,15308,0.080,551
2019-11-22T00:20:02,42.805,6.029,CST-1368DR,7315,10253,15310,0.079,551
2019-11-22T00:23:04,42.805,6.029,CST-1368DR,7315,10253,15310,0.079,551
2019-11-22T00:26:05,42.805,6.029,CST-1368DR,7315,10247,15301,0.082,551
2019-11-22T00:29:07,42.805,6.029,CST-1368DR,7315,10252,15309,0.079,551
2019-11-22T00:32:09,42.805,6.029,CST-1368DR,7315,10250,15305,0.080,551
2019-11-22T00:35:10,42.805,6.029,CST-1368DR,7315,10253,15310,0.079,551
2019-11-22T00:38:12,42.805,6.029,CST-1368DR,7315,10253,15310,0.079,551
2019-11-22T00:41:14,42.805,6.029,CST-1368DR,7315,10253,15310,0.079,551
2019-11-22T00:44:15,42.805,6.029,CST-1368DR,7315,10253,15310,0.079,551
2019-11-22T00:47:17,42.805,6.029,CST-1368DR,7315,10252,15309,0.079,551
2019-11-22T00:50:18,42.805,6.029,CST-1368DR,7315,10253,15310,0.079,551
2019-11-22T00:53:20,42.805,6.029,CST-1368DR,7315,10251,15307,0.080,551
2019-11-22T00:56:22,42.805,6.029,CST-1368DR,7315,10252,15308,0.080,550
2019-11-22T00:59:23,42.805,6.029,CST-1368DR,7315,10252,15308,0.080,550
2019-11-22T01:02:25,42.805,6.029,CST-1368DR,7315,10252,15309,0.079,551
2019-11-22T01:05:27,42.805,6.029,CST-1368DR,7315,10252,15308,0.080,551
2019-11-22T01:08:28,42.805,6.029,CST-1368DR,7315,10252,15309,0.079,551
2019-11-22T01:11:30,42.805,6.029,CST-1368DR,7315,10252,15308,0.080,551
2019-11-22T01:14:32,42.805,6.029,CST-1368DR,7315,10252,15308,0.080,551
2019-11-22T01:17:33,42.805,6.029,CST-1368DR,7315,10252,15308,0.080,550
2019-11-22T01:20:35,42.805,6.029,CST-1368DR,7315,10252,15309,0.079,551
2019-11-22T01:23:36,42.805,6.029,CST-1368DR,7315,10252,15308,0.080,551
2019-11-22T01:26:38,42.805,6.029,CST-1368DR,7315,10252,15308,0.080,551
2019-11-22T01:29:40,42.805,6.029,CST-1368DR,7315,10252,15308,0.080,551
2019-11-22T01:32:41,42.805,6.029,CST-1368DR,7315,10251,15307,0.080,551
2019-11-22T01:35:43,42.805,6.029,CST-1368DR,7315,10252,15308,0.080,551
2019-11-22T01:38:45,42.805,6.029,CST-1368DR,7315,10252,15308,0.080,551
2019-11-22T01:41:46,42.805,6.029,CST-1368DR,7315,10252,15308,0.080,550
2019-11-22T01:44:48,42.805,6.029,CST-1368DR,7315,10250,15305,0.080,551
2019-11-22T01:47:50,42.805,6.029,CST-1368DR,7315,10250,15306,0.080,551
2019-11-22T01:50:51,42.805,6.029,CST-1368DR,7315,10248,15302,0.081,551
2019-11-22T01:53:53,42.805,6.029,CST-1368DR,7315,10253,15310,0.079,551
2019-11-22T01:56:54,42.805,6.029,CST-1368DR,7315,10251,15307,0.080,551
2019-11-22T01:59:56,42.805,6.029,CST-1368DR,7315,10252,15308,0.080,551
2019-11-22T02:02:58,42.805,6.029,CST-1368DR,7314,10251,15309,0.079,551
2019-11-22T02:05:59,42.805,6.029,CST-1368DR,7314,10251,15309,0.079,551
2019-11-22T02:09:01,42.805,6.029,CST-1368DR,7314,10251,15309,0.079,551
2019-11-22T02:12:02,42.805,6.029,CST-1368DR,7314,10252,15310,0.079,551
2019-11-22T02:15:04,42.805,6.029,CST-1368DR,7314,10251,15309,0.079,551
2019-11-22T02:18:06,42.805,6.029,CST-1368DR,7314,10251,15309,0.079,550
2019-11-22T02:21:08,42.805,6.029,CST-1368DR,7314,10251,15309,0.079,550
2019-11-22T02:24:09,42.805,6.029,CST-1368DR,7314,10251,15309,0.079,551
2019-11-22T02:27:11,42.805,6.029,CST-1368DR,7314,10250,15307,0.080,551
2019-11-22T02:30:12,42.805,6.029,CST-1368DR,7314,10251,15309,0.079,551
2019-11-22T02:33:14,42.805,6.029,CST-1368DR,7314,10251,15309,0.079,551
2019-11-22T02:36:16,42.805,6.029,CST-1368DR,7314,10250,15308,0.080,551
2019-11-22T02:39:17,42.805,6.029,CST-1368DR,7314,10251,15308,0.080,551
2019-11-22T02:42:19,42.805,6.029,CST-1368DR,7314,10251,15308,0.080,551
2019-11-22T02:45:20,42.805,6.029,CST-1368DR,7314,10249,15306,0.080,551
2019-11-22T02:48:22,42.805,6.029,CST-1368DR,7314,10251,15309,0.079,551
2019-11-22T02:51:24,42.805,6.029,CST-1368DR,7314,10252,15310,0.079,551
2019-11-22T02:54:25,42.805,6.029,CST-1368DR,7314,10252,15310,0.079,551
2019-11-22T02:57:27,42.805,6.029,CST-1368DR,7314,10251,15309,0.079,551
2019-11-22T03:00:29,42.805,6.029,CST-1368DR,7314,10251,15309,0.079,551
2019-11-22T03:03:30,42.805,6.029,CST-1368DR,7314,10251,15309,0.079,551
2019-11-22T03:06:32,42.805,6.029,CST-1368DR,7314,10251,15308,0.080,551
2019-11-22T03:09:34,42.805,6.029,CST-1368DR,7314,10251,15309,0.079,551
2019-11-22T03:12:35,42.805,6.029,CST-1368DR,7314,10251,15309,0.079,551
2019-11-22T03:15:37,42.805,6.029,CST-1368DR,7314,10251,15309,0.079,551
2019-11-22T03:18:39,42.805,6.029,CST-1368DR,7314,10251,15309,0.079,551
2019-11-22T03:21:40,42.805,6.029,CST-1368DR,7314,10252,15310,0.079,551
2019-11-22T03:24:42,42.805,6.029,CST-1368DR,7314,10251,15309,0.079,550
2019-11-22T03:27:43,42.805,6.029,CST-1368DR,7314,10251,15309,0.079,551
2019-11-22T03:30:45,42.805,6.029,CST-1368DR,7314,10251,15309,0.079,551
2019-11-22T03:33:47,42.805,6.029,CST-1368DR,7314,10251,15309,0.079,551
2019-11-22T03:36:48,42.805,6.029,CST-1368DR,7314,10250,15307,0.080,551
2019-11-22T03:39:50,42.805,6.029,CST-1368DR,7314,10251,15309,0.079,551
2019-11-22T03:42:52,42.805,6.029,CST-1368DR,7314,10251,15308,0.080,551
2019-11-22T03:45:53,42.805,6.029,CST-1368DR,7314,10250,15307,0.080,551
2019-11-22T03:48:55,42.805,6.029,CST-1368DR,7314,10250,15308,0.080,551
2019-11-22T03:51:57,42.805,6.029,CST-1368DR,7314,10250,15308,0.080,551
2019-11-22T03:54:58,42.805,6.029,CST-1368DR,7314,10251,15309,0.079,551
2019-11-22T03:58:00,42.805,6.029,CST-1368DR,7314,10250,15307,0.080,551
2019-11-22T04:01:01,42.805,6.029,CST-1368DR,7314,10240,15293,0.084,551
2019-11-22T04:04:03,42.805,6.029,CST-1368DR,7314,10250,15307,0.080,551
2019-11-22T04:07:05,42.805,6.029,CST-1368DR,7314,10248,15304,0.081,551
2019-11-22T04:10:07,42.805,6.029,CST-1368DR,7314,10250,15308,0.080,551
2019-11-22T04:13:08,42.805,6.029,CST-1368DR,7314,10250,15308,0.080,551
2019-11-22T04:16:10,42.805,6.029,CST-1368DR,7314,10250,15307,0.080,551
2019-11-22T04:19:12,42.805,6.029,CST-1368DR,7314,10250,15308,0.080,551
2019-11-22T04:22:13,42.805,6.029,CST-1368DR,7314,10250,15307,0.080,551
2019-11-22T04:25:15,42.805,6.029,CST-1368DR,7314,10250,15308,0.080,551
2019-11-22T04:28:17,42.805,6.029,CST-1368DR,7314,10249,15305,0.080,551
2019-11-22T04:31:18,42.805,6.029,CST-1368DR,7314,10248,15304,0.081,551
2019-11-22T04:34:20,42.805,6.029,CST-1368DR,7314,10251,15308,0.080,551
2019-11-22T04:37:22,42.805,6.029,CST-1368DR,7314,10250,15307,0.080,551
2019-11-22T04:40:23,42.805,6.029,CST-1368DR,7314,10250,15307,0.080,551
2019-11-22T04:43:25,42.805,6.029,CST-1368DR,7314,10250,15308,0.080,551
2019-11-22T04:46:27,42.805,6.029,CST-1368DR,7314,10250,15308,0.080,551
2019-11-22T04:49:28,42.805,6.029,CST-1368DR,7314,10250,15308,0.080,551
2019-11-22T04:52:30,42.805,6.029,CST-1368DR,7314,10250,15307,0.080,551
2019-11-22T04:55:31,42.805,6.029,CST-1368DR,7314,10250,15308,0.080,551
2019-11-22T04:58:33,42.805,6.029,CST-1368DR,7314,10250,15308,0.080,551
2019-11-22T05:01:35,42.805,6.029,CST-1368DR,7314,10250,15308,0.080,551
2019-11-22T05:04:36,42.805,6.029,CST-1368DR,7314,10251,15308,0.080,551
2019-11-22T05:07:38,42.805,6.029,CST-1368DR,7314,10249,15306,0.080,550
2019-11-22T05:10:40,42.805,6.029,CST-1368DR,7314,10250,15307,0.080,551
2019-11-22T05:13:41,42.805,6.029,CST-1368DR,7313,10249,15308,0.080,551
2019-11-22T05:16:43,42.805,6.029,CST-1368DR,7313,10250,15309,0.079,551
2019-11-22T05:19:45,42.805,6.029,CST-1368DR,7314,10250,15307,0.080,551
2019-11-22T05:22:46,42.805,6.029,CST-1368DR,7313,10247,15305,0.080,551
2019-11-22T05:25:48,42.805,6.029,CST-1368DR,7313,10249,15308,0.080,551
2019-11-22T05:28:49,42.805,6.029,CST-1368DR,7313,10250,15309,0.079,551
2019-11-22T05:31:51,42.805,6.029,CST-1368DR,7313,10250,15309,0.079,551
2019-11-22T05:34:53,42.805,6.029,CST-1368DR,7313,10249,15308,0.080,551
2019-11-22T05:37:54,42.805,6.029,CST-1368DR,7314,10249,15306,0.080,551
2019-11-22T05:40:56,42.805,6.029,CST-1368DR,7313,10250,15309,0.079,551
2019-11-22T05:43:58,42.805,6.029,CST-1368DR,7314,10248,15305,0.080,551
2019-11-22T05:46:59,42.805,6.029,CST-1368DR,7313,10249,15308,0.080,550
2019-11-22T05:50:01,42.805,6.029,CST-1368DR,7313,10249,15308,0.080,551
2019-11-22T05:53:02,42.805,6.029,CST-1368DR,7313,10250,15309,0.079,551
2019-11-22T05:56:04,42.805,6.029,CST-1368DR,7313,10248,15306,0.080,551
2019-11-22T05:59:06,42.805,6.029,CST-1368DR,7313,10249,15307,0.080,551
2019-11-22T06:02:07,42.805,6.029,CST-1368DR,7313,10249,15308,0.080,551
2019-11-22T06:05:09,42.805,6.029,CST-1368DR,7313,10249,15308,0.080,551
2019-11-22T06:08:11,42.805,6.029,CST-1368DR,7313,10250,15309,0.079,551
2019-11-22T06:11:12,42.805,6.029,CST-1368DR,7313,10250,15309,0.079,551
2019-11-22T06:14:14,42.805,6.029,CST-1368DR,7313,10250,15309,0.079,551
2019-11-22T06:17:16,42.805,6.029,CST-1368DR,7313,10250,15309,0.079,551
2019-11-22T06:20:17,42.805,6.029,CST-1368DR,7313,10250,15309,0.079,551
2019-11-22T06:23:19,42.805,6.029,CST-1368DR,7313,10250,15309,0.079,551
2019-11-22T06:26:21,42.805,6.029,CST-1368DR,7313,10251,15311,0.079,550
2019-11-22T06:29:22,42.805,6.029,CST-1368DR,7313,10250,15309,0.079,551
2019-11-22T06:32:24,42.805,6.029,CST-1368DR,7313,10249,15308,0.080,550
2019-11-22T06:35:25,42.805,6.029,CST-1368DR,7313,10250,15309,0.079,551
2019-11-22T06:38:27,42.805,6.029,CST-1368DR,7313,10250,15310,0.079,550
2019-11-22T06:41:29,42.805,6.029,CST-1368DR,7313,10248,15306,0.080,551
2019-11-22T06:44:30,42.805,6.029,CST-1368DR,7313,10249,15307,0.080,551
2019-11-22T06:47:32,42.805,6.029,CST-1368DR,7313,10250,15309,0.079,550
2019-11-22T06:50:34,42.805,6.029,CST-1368DR,7313,10250,15310,0.079,550
2019-11-22T06:53:35,42.805,6.029,CST-1368DR,7313,10250,15309,0.079,551
2019-11-22T06:56:37,42.805,6.029,CST-1368DR,7313,10249,15308,0.080,551
2019-11-22T06:59:39,42.805,6.029,CST-1368DR,7313,10250,15310,0.079,551
2019-11-22T07:02:40,42.805,6.029,CST-1368DR,7313,10250,15309,0.079,551
2019-11-22T07:05:42,42.805,6.029,CST-1368DR,7313,10250,15309,0.079,551
2019-11-22T07:08:43,42.805,6.029,CST-1368DR,7313,10249,15308,0.080,551
2019-11-22T07:11:45,42.805,6.029,CST-1368DR,7313,10249,15307,0.080,551
2019-11-22T07:14:47,42.805,6.029,CST-1368DR,7313,10249,15308,0.080,551
2019-11-22T07:17:49,42.805,6.029,CST-1368DR,7313,10248,15307,0.080,551
2019-11-22T07:20:50,42.805,6.029,CST-1368DR,7313,10249,15307,0.080,550
2019-11-22T07:23:52,42.805,6.029,CST-1368DR,7313,10249,15307,0.080,551
2019-11-22T07:26:53,42.805,6.029,CST-1368DR,7313,10249,15307,0.080,551
2019-11-22T07:29:55,42.805,6.029,CST-1368DR,7313,10250,15309,0.079,551
2019-11-22T07:32:57,42.805,6.029,CST-1368DR,7313,10250,15309,0.079,551
2019-11-22T07:35:58,42.805,6.029,CST-1368DR,7313,10249,15308,0.080,551
2019-11-22T07:39:00,42.805,6.029,CST-1368DR,7313,10249,15308,0.080,551
2019-11-22T07:42:02,42.805,6.029,CST-1368DR,7313,10249,15308,0.080,551
2019-11-22T07:45:03,42.805,6.029,CST-1368DR,7313,10249,15308,0.080,551
2019-11-22T07:48:05,42.805,6.029,CST-1368DR,7313,10250,15309,0.079,551
2019-11-22T07:51:07,42.805,6.029,CST-1368DR,7313,10250,15309,0.079,551
2019-11-22T07:54:08,42.805,6.029,CST-1368DR,7313,10250,15310,0.079,551
2019-11-22T07:57:10,42.805,6.029,CST-1368DR,7313,10250,15309,0.079,551
2019-11-22T08:00:12,42.805,6.029,CST-1368DR,7313,10248,15306,0.080,551
2019-11-22T08:03:13,42.805,6.029,CST-1368DR,7313,10250,15310,0.079,551
2019-11-22T08:06:15,42.805,6.029,CST-1368DR,7313,10250,15310,0.079,551
2019-11-22T08:09:17,42.805,6.029,CST-1368DR,7313,10250,15310,0.079,551
2019-11-22T08:12:18,42.805,6.029,CST-1368DR,7313,10251,15311,0.079,551
2019-11-22T08:15:20,42.805,6.029,CST-1368DR,7313,10250,15310,0.079,551
2019-11-22T08:18:21,42.805,6.029,CST-1368DR,7313,10250,15309,0.079,551
2019-11-22T08:21:23,42.805,6.029,CST-1368DR,7313,10250,15310,0.079,551
2019-11-22T08:24:25,42.805,6.029,CST-1368DR,7313,10250,15310,0.079,551
2019-11-22T08:27:26,42.805,6.029,CST-1368DR,7313,10250,15309,0.079,551
2019-11-22T08:30:28,42.805,6.029,CST-1368DR,7313,10250,15309,0.079,550
2019-11-22T08:33:30,42.805,6.029,CST-1368DR,7313,10250,15310,0.079,551
2019-11-22T08:36:31,42.805,6.029,CST-1368DR,7313,10250,15309,0.079,551
2019-11-22T08:39:33,42.805,6.029,CST-1368DR,7313,10251,15310,0.079,551
2019-11-22T08:42:35,42.805,6.029,CST-1368DR,7313,10251,15310,0.079,551
2019-11-22T08:45:36,42.805,6.029,CST-1368DR,7313,10250,15309,0.079,551
2019-11-22T08:48:38,42.805,6.029,CST-1368DR,7313,10250,15310,0.079,551
2019-11-22T08:51:40,42.805,6.029,CST-1368DR,7313,10250,15309,0.079,550
2019-11-22T08:54:41,42.805,6.029,CST-1368DR,7313,10250,15310,0.079,551
2019-11-22T08:57:43,42.805,6.029,CST-1368DR,7313,10249,15307,0.080,551
2019-11-22T09:00:45,42.805,6.029,CST-1368DR,7313,10250,15309,0.079,551
2019-11-22T09:03:46,42.805,6.029,CST-1368DR,7313,10250,15309,0.079,551
2019-11-22T09:06:48,42.805,6.029,CST-1368DR,7313,10250,15309,0.079,551
2019-11-22T09:09:50,42.805,6.029,CST-1368DR,7312,10250,15311,0.079,551
2019-11-22T09:12:51,42.805,6.029,CST-1368DR,7312,10247,15306,0.080,551
2019-11-22T09:15:53,42.805,6.029,CST-1368DR,7312,10248,15308,0.080,551
2019-11-22T09:18:55,42.805,6.029,CST-1368DR,7312,10250,15311,0.079,551
2019-11-22T09:21:56,42.805,6.029,CST-1368DR,7313,10250,15309,0.079,551
2019-11-22T09:24:58,42.805,6.029,CST-1368DR,7313,10250,15310,0.079,550
2019-11-22T09:28:00,42.805,6.029,CST-1368DR,7313,10250,15309,0.079,551
2019-11-22T09:31:01,42.805,6.029,CST-1368DR,7312,10249,15309,0.079,551
2019-11-22T09:34:03,42.805,6.029,CST-1368DR,7312,10250,15311,0.079,551
2019-11-22T09:37:04,42.805,6.029,CST-1368DR,7312,10250,15311,0.079,551
2019-11-22T09:40:06,42.805,6.029,CST-1368DR,7312,10249,15310,0.079,551
2019-11-22T09:43:08,42.805,6.029,CST-1368DR,7312,10249,15309,0.079,551
2019-11-22T09:46:09,42.805,6.029,CST-1368DR,7312,10250,15311,0.079,551
2019-11-22T09:49:11,42.805,6.029,CST-1368DR,7312,10249,15310,0.079,551
2019-11-22T09:52:13,42.805,6.029,CST-1368DR,7312,10250,15311,0.079,551
2019-11-22T09:55:14,42.805,6.029,CST-1368DR,7312,10250,15311,0.079,551
2019-11-22T09:58:16,42.805,6.029,CST-1368DR,7312,10249,15310,0.079,551
2019-11-22T10:01:18,42.805,6.029,CST-1368DR,7312,10250,15311,0.079,551
2019-11-22T10:04:19,42.805,6.029,CST-1368DR,7312,10248,15309,0.079,551
2019-11-22T10:07:21,42.805,6.029,CST-1368DR,7312,10250,15311,0.079,551
2019-11-22T10:10:23,42.805,6.029,CST-1368DR,7312,10250,15311,0.079,551
2019-11-22T10:13:24,42.805,6.029,CST-1368DR,7312,10249,15309,0.079,550
2019-11-22T10:16:26,42.805,6.029,CST-1368DR,7312,10248,15309,0.079,551
2019-11-22T10:19:28,42.805,6.029,CST-1368DR,7312,10249,15310,0.079,551
2019-11-22T10:22:30,42.805,6.029,CST-1368DR,7312,10248,15309,0.079,551
2019-11-22T10:25:31,42.805,6.029,CST-1368DR,7312,10249,15309,0.079,551
2019-11-22T10:28:33,42.805,6.029,CST-1368DR,7312,10248,15309,0.079,551
2019-11-22T10:31:35,42.805,6.029,CST-1368DR,7312,10249,15309,0.079,551
2019-11-22T10:34:36,42.805,6.029,CST-1368DR,7312,10249,15309,0.079,551
2019-11-22T10:37:38,42.805,6.029,CST-1368DR,7312,10245,15304,0.081,551
2019-11-22T10:40:40,42.805,6.029,CST-1368DR,7312,10249,15309,0.079,551
2019-11-22T10:43:41,42.805,6.029,CST-1368DR,7312,10249,15309,0.079,551
2019-11-22T10:46:43,42.805,6.029,CST-1368DR,7312,10248,15308,0.080,551
2019-11-22T10:49:44,42.805,6.029,CST-1368DR,7312,10246,15306,0.080,551
2019-11-22T10:52:46,42.805,6.029,CST-1368DR,7312,10250,15311,0.079,551
2019-11-22T10:55:48,42.805,6.029,CST-1368DR,7312,10248,15308,0.080,551
2019-11-22T10:58:49,42.805,6.029,CST-1368DR,7312,10248,15308,0.080,551
2019-11-22T11:01:51,42.805,6.029,CST-1368DR,7312,10248,15308,0.080,551
2019-11-22T11:04:53,42.805,6.029,CST-1368DR,7312,10248,15308,0.080,551
2019-11-22T11:07:54,42.805,6.029,CST-1368DR,7312,10248,15308,0.080,551
2019-11-22T11:10:56,42.805,6.029,CST-1368DR,7312,10248,15308,0.080,551
2019-11-22T11:13:58,42.805,6.029,CST-1368DR,7312,10247,15306,0.080,551
2019-11-22T11:16:59,42.805,6.029,CST-1368DR,7312,10248,15308,0.080,551
2019-11-22T11:20:01,42.805,6.029,CST-1368DR,7312,10249,15309,0.079,551
2019-11-22T11:23:03,42.805,6.029,CST-1368DR,7312,10247,15307,0.080,551
2019-11-22T11:26:04,42.805,6.029,CST-1368DR,7312,10247,15306,0.080,551
2019-11-22T11:29:06,42.805,6.029,CST-1368DR,7312,10247,15307,0.080,551
2019-11-22T11:32:07,42.805,6.029,CST-1368DR,7312,10247,15307,0.080,550
2019-11-22T11:35:09,42.805,6.029,CST-1368DR,7312,10247,15306,0.080,551
2019-11-22T11:38:11,42.805,6.029,CST-1368DR,7312,10248,15308,0.080,551
2019-11-22T11:41:12,42.805,6.029,CST-1368DR,7312,10246,15305,0.080,551
2019-11-22T11:44:14,42.805,6.029,CST-1368DR,7312,10248,15308,0.080,551
2019-11-22T11:47:16,42.805,6.029,CST-1368DR,7312,10248,15308,0.080,551
2019-11-22T11:50:17,42.805,6.029,CST-1368DR,7312,10248,15308,0.080,551
2019-11-22T11:53:19,42.805,6.029,CST-1368DR,7312,10248,15308,0.080,551
2019-11-22T11:56:20,42.805,6.029,CST-1368DR,7312,10248,15308,0.080,551
2019-11-22T11:59:22,42.805,6.029,CST-1368DR,7312,10248,15308,0.080,551
2019-11-22T12:02:24,42.805,6.029,CST-1368DR,7312,10248,15308,0.080,551
2019-11-22T12:05:25,42.805,6.029,CST-1368DR,7311,10247,15309,0.079,551
2019-11-22T12:08:27,42.805,6.029,CST-1368DR,7312,10247,15307,0.080,551
2019-11-22T12:11:29,42.805,6.029,CST-1368DR,7312,10248,15308,0.080,551
2019-11-22T12:14:30,42.805,6.029,CST-1368DR,7312,10247,15307,0.080,551
2019-11-22T12:17:32,42.805,6.029,CST-1368DR,7312,10248,15308,0.080,551
2019-11-22T12:20:33,42.805,6.029,CST-1368DR,7311,10248,15310,0.079,551
2019-11-22T12:23:35,42.805,6.029,CST-1368DR,7311,10248,15310,0.079,551
2019-11-22T12:26:37,42.805,6.029,CST-1368DR,7312,10247,15307,0.080,551
2019-11-22T12:29:38,42.805,6.029,CST-1368DR,7312,10248,15308,0.080,551
2019-11-22T12:32:40,42.805,6.029,CST-1368DR,7311,10247,15308,0.080,551
2019-11-22T12:35:41,42.805,6.029,CST-1368DR,7311,10247,15309,0.079,551
2019-11-22T12:38:43,42.805,6.029,CST-1368DR,7311,10247,15309,0.079,551
2019-11-22T12:41:45,42.805,6.029,CST-1368DR,7312,10247,15306,0.080,551
2019-11-22T12:44:46,42.805,6.029,CST-1368DR,7312,10247,15307,0.080,551
2019-11-22T12:47:48,42.805,6.029,CST-1368DR,7311,10247,15309,0.079,551
2019-11-22T12:50:50,42.805,6.029,CST-1368DR,7311,10247,15308,0.080,551
2019-11-22T12:53:51,42.805,6.029,CST-1368DR,7311,10247,15308,0.080,551
2019-11-22T12:56:53,42.805,6.029,CST-1368DR,7311,10247,15308,0.080,551
2019-11-22T12:59:54,42.805,6.029,CST-1368DR,7311,10245,15305,0.080,551
2019-11-22T13:02:56,42.805,6.029,CST-1368DR,7311,10247,15309,0.079,551
2019-11-22T13:05:58,42.805,6.029,CST-1368DR,7311,10247,15309,0.079,551
2019-11-22T13:08:59,42.805,6.029,CST-1368DR,7311,10247,15309,0.079,551
2019-11-22T13:12:01,42.805,6.029,CST-1368DR,7311,10246,15307,0.080,551
2019-11-22T13:15:03,42.805,6.029,CST-1368DR,7311,10245,15306,0.080,551
2019-11-22T13:18:04,42.805,6.029,CST-1368DR,7311,10247,15308,0.080,551
2019-11-22T13:21:06,42.805,6.029,CST-1368DR,7311,10247,15308,0.080,551
2019-11-22T13:24:08,42.805,6.029,CST-1368DR,7311,10247,15309,0.079,551
2019-11-22T13:27:09,42.805,6.029,CST-1368DR,7311,10245,15306,0.080,551
2019-11-22T13:30:11,42.805,6.029,CST-1368DR,7311,10247,15308,0.080,551
2019-11-22T13:33:12,42.805,6.029,CST-1368DR,7311,10246,15308,0.080,550
2019-11-22T13:36:14,42.805,6.029,CST-1368DR,7311,10247,15308,0.080,551
2019-11-22T13:39:16,42.805,6.029,CST-1368DR,7311,10247,15308,0.080,551
2019-11-22T13:42:17,42.805,6.029,CST-1368DR,7311,10246,15308,0.080,551
2019-11-22T13:45:19,42.805,6.029,CST-1368DR,7311,10246,15307,0.080,551
2019-11-22T13:48:21,42.805,6.029,CST-1368DR,7311,10248,15310,0.079,551
2019-11-22T13:51:22,42.805,6.029,CST-1368DR,7311,10247,15309,0.079,550
2019-11-22T13:54:24,42.805,6.029,CST-1368DR,7311,10247,15309,0.079,551
2019-11-22T13:57:25,42.805,6.029,CST-1368DR,7311,10247,15309,0.079,551
2019-11-22T14:00:27,42.805,6.029,CST-1368DR,7311,10246,15308,0.080,551
2019-11-22T14:03:29,42.805,6.029,CST-1368DR,7311,10247,15309,0.079,551
2019-11-22T14:06:31,42.805,6.029,CST-1368DR,7311,10247,15308,0.080,551
2019-11-22T14:09:32,42.805,6.029,CST-1368DR,7311,10247,15308,0.080,551
2019-11-22T14:12:34,42.805,6.029,CST-1368DR,7311,10245,15306,0.080,551
2019-11-22T14:15:36,42.805,6.029,CST-1368DR,7311,10245,15306,0.080,551
2019-11-22T14:18:37,42.805,6.029,CST-1368DR,7311,10247,15308,0.080,551
2019-11-22T14:21:39,42.805,6.029,CST-1368DR,7311,10247,15309,0.079,551
2019-11-22T14:24:40,42.805,6.029,CST-1368DR,7311,10247,15309,0.079,551
2019-11-22T14:27:42,42.805,6.029,CST-1368DR,7311,10247,15309,0.079,551
2019-11-22T14:30:44,42.805,6.029,CST-1368DR,7311,10246,15307,0.080,551
2019-11-22T14:33:46,42.805,6.029,CST-1368DR,7311,10247,15308,0.080,551
2019-11-22T14:36:47,42.805,6.029,CST-1368DR,7311,10246,15308,0.080,551
2019-11-22T14:39:49,42.805,6.029,CST-1368DR,7311,10247,15308,0.080,551
2019-11-22T14:42:50,42.805,6.029,CST-1368DR,7311,10246,15308,0.080,550
2019-11-22T14:45:52,42.805,6.029,CST-1368DR,7311,10246,15307,0.080,551
2019-11-22T14:48:54,42.805,6.029,CST-1368DR,7311,10245,15305,0.080,551
2019-11-22T14:51:55,42.805,6.029,CST-1368DR,7311,10246,15307,0.080,551
2019-11-22T14:54:57,42.805,6.029,CST-1368DR,7311,10246,15307,0.080,551
2019-11-22T14:57:59,42.805,6.029,CST-1368DR,7311,10247,15308,0.080,551
2019-11-22T15:01:00,42.805,6.029,CST-1368DR,7311,10245,15306,0.080,551
2019-11-22T15:04:02,42.805,6.029,CST-1368DR,7311,10246,15307,0.080,551
2019-11-22T15:07:04,42.805,6.029,CST-1368DR,7311,10246,15308,0.080,551
2019-11-22T15:10:05,42.805,6.029,CST-1368DR,7311,10247,15308,0.080,551
2019-11-22T15:13:07,42.805,6.029,CST-1368DR,7311,10247,15308,0.080,551
2019-11-22T15:16:08,42.805,6.029,CST-1368DR,7311,10245,15305,0.080,551
2019-11-22T15:19:10,42.805,6.029,CST-1368DR,7311,10247,15308,0.080,551
2019-11-22T15:22:12,42.805,6.029,CST-1368DR,7311,10247,15308,0.080,551
2019-11-22T15:25:13,42.805,6.029,CST-1368DR,7310,10243,15304,0.081,551
2019-11-22T15:28:15,42.805,6.029,CST-1368DR,7311,10246,15307,0.080,551
2019-11-22T15:31:17,42.805,6.029,CST-1368DR,7311,10246,15308,0.080,551
2019-11-22T15:34:19,42.805,6.029,CST-1368DR,7311,10246,15308,0.080,551
2019-11-22T15:37:20,42.805,6.029,CST-1368DR,7311,10246,15308,0.080,551
2019-11-22T15:40:22,42.805,6.029,CST-1368DR,7310,10247,15310,0.079,551
2019-11-22T15:43:24,42.805,6.029,CST-1368DR,7310,10246,15309,0.079,551
2019-11-22T15:46:25,42.805,6.029,CST-1368DR,7310,10244,15306,0.080,551
2019-11-22T15:49:27,42.805,6.029,CST-1368DR,7311,10246,15307,0.080,551
2019-11-22T15:52:29,42.805,6.029,CST-1368DR,7310,10246,15309,0.079,551
2019-11-22T15:55:30,42.805,6.029,CST-1368DR,7310,10246,15309,0.079,551
2019-11-22T15:58:32,42.805,6.029,CST-1368DR,7310,10245,15308,0.080,550
2019-11-22T16:01:33,42.805,6.029,CST-1368DR,7310,10245,15308,0.080,551
2019-11-22T16:04:35,42.805,6.029,CST-1368DR,7310,10246,15310,0.079,551
2019-11-22T16:07:37,42.805,6.029,CST-1368DR,7310,10245,15308,0.080,551
2019-11-22T16:10:38,42.805,6.029,CST-1368DR,7310,10246,15309,0.079,551
2019-11-22T16:13:40,42.805,6.029,CST-1368DR,7310,10246,15309,0.079,551
2019-11-22T16:16:42,42.805,6.029,CST-1368DR,7310,10246,15309,0.079,551
2019-11-22T16:19:43,42.805,6.029,CST-1368DR,7310,10246,15310,0.079,551
2019-11-22T16:22:45,42.805,6.029,CST-1368DR,7310,10246,15310,0.079,551
2019-11-22T16:25:46,42.805,6.029,CST-1368DR,7310,10246,15309,0.079,551
2019-11-22T16:28:48,42.805,6.029,CST-1368DR,7310,10245,15308,0.080,551
2019-11-22T16:31:50,42.805,6.029,CST-1368DR,7310,10246,15309,0.079,551
2019-11-22T16:34:51,42.805,6.029,CST-1368DR,7310,10244,15307,0.080,551
2019-11-22T16:37:53,42.805,6.029,CST-1368DR,7310,10245,15308,0.080,551